User: anonymous   Login
Location: NJAA Observatory
(40.6819°N, 74.8979°W)
Time: 07:12:10
(UTC-04:00)
Language:

Landsat 5 - Orbit

View from above orbital plane
View from above orbital plane
View from above satellite
View from above satellite

Ground track
Ground track

The orbit data is extracted from the following two-line orbital elements,

1 14780U 84021A   14304.16273318  .00003744  00000-0  36938-3 0  4746
2 14780 098.0457 023.7620 0096325 087.2638 330.1704 14.89175084632853
Epoch (UTC): 31 October 2014 03:54:20
Eccentricity: 0.0096325
inclination: 98.0457°
perigee height: 533 km
apogee height: 668 km
right ascension of ascending node: 23.7620°
argument of perigee: 87.2638°
revolutions per day: 14.89175084
mean anomaly at epoch: 330.1704°
orbit number at epoch: 63285

The dashed part of the orbit path shows where the satellite is in the earth's shadow,  

DLR